Location: ??????????
(54.7560°N, 39.1389°E)
Time: 02:24:16
(UTC+00:00)

In-Cosmos 22 - Pass Details

Date: 19 May 2025
Orbit: 784 x 874 km, 81.2° (Epoch: 13 June)

Event Time Altitude Azimuth Distance (km) Brightness Sun altitude
Exits shadow 21:49:27 22° 179° (S) 1,792 5.3 -15.0°
Maximum altitude 21:53:11 72° 100° (E) 922 4.4 -14.9°
Drops below altitude 10° 21:58:57 10° 17° (NNE) 2,540 8.1 -14.8°
Sets 22:01:25 0° 16° (NNE) 3,482 9.3 -14.7°
